This demonstration page uses our WeatherBlox Daily Observations layout. Learn more.

Left ArrowRight Arrow

Hourly Observations for August 29, 2015

Temp ( °F °C ) Dew Point ( °F °C ) Humidity (%) Winds ( mph kmh ) Pressure ( in mb ) Visibility ( mi km ) Precip ( " mm )
12:17 am 00:17 Cloudy 65 18.3 60 15.6 84 84 N 10 17 29.97 1015 10 16.0934 0 0
12:25 am 00:25 Cloudy 64 17.8 60 15.6 87 87 N 9 15 29.97 1015 10 16.0934 0 0
12:54 am 00:54 Cloudy 65 18.3 60 15.6 84 84 N 9 15 29.96 1015 10 16.0934 0 0
1:54 am 01:54 Cloudy 64 17.8 60 15.6 87 87 N 14 22 29.97 1015 10 16.0934 0 0
2:54 am 02:54 Cloudy 64 17.8 61 16.1 90 90 N 6 9 29.97 1015 9 14.48406 0 0
3:54 am 03:54 Cloudy with Mist and Fog 63 17.2 60 15.6 90 90 N 10 17 29.99 1016 6 9.65604 0 0
4:54 am 04:54 Cloudy with Mist and Fog 62 16.7 61 16.1 96 96 N 8 13 30 1016 4 6.43736 0 0
5:08 am 05:08 Cloudy with Mist and Fog 63 17 61 16 94 94 N 7 11 30 1016 2 3.21868 0 0
5:54 am 05:54 Cloudy with Mist and Fog 62 16.7 61 16.1 96 96 N 9 15 30.01 1016 2 3.21868 0 0
6:28 am 06:28 Cloudy with Mist and Fog 62 16.7 61 16.1 96 96 N 9 15 30.06 1018 2 3.21868 0 0
6:54 am 06:54 Cloudy with Drizzle 62 16.7 61 16.1 96 96 N 8 13 30.04 1017 2.5 4.02335 0 0.0254
7:07 am 07:07 Cloudy with Drizzle 61 16 61 16 100 100 N 10 17 30.06 1018 1.75 2.816345 0 0
7:54 am 07:54 Cloudy with Drizzle 61 16.1 60 15.6 97 97 NNE 12 19 30.06 1018 1.5 2.41401 0 0.0254
8:07 am 08:07 Cloudy with Drizzle 61 16.1 60 15.6 97 97 N 9 15 30.09 1019 2 3.21868 0 0.0254
8:16 am 08:16 Cloudy with Drizzle 61 16.1 60 15.6 97 97 N 9 15 30.09 1019 1.75 2.816345 0 0.0254
8:25 am 08:25 Cloudy with Mist and Fog 61 16.1 60 15.6 97 97 N 7 11 30.09 1019 2.5 4.02335 0 0.0254
8:32 am 08:32 Cloudy with Mist and Fog 61 16 61 16 100 100 N 10 17 30.09 1019 4 6.43736 0 0
8:54 am 08:54 Cloudy with Mist and Fog 61 16.1 59 15 93 93 N 10 17 30.06 1018 6 9.65604 0 0.0254
9:54 am 09:54 Cloudy 62 16.7 59 15 90 90 N 10 17 30.07 1018 9 14.48406 0 0
10:54 am 10:54 Cloudy 63 17.2 60 15.6 90 90 N 7 11 30.08 1019 8 12.87472 0 0
11:54 am 11:54 Cloudy 65 18.3 61 16.1 87 87 NNE 7 11 30.08 1019 8 12.87472 0 0
12:54 pm 12:54 Cloudy 67 19.4 60 15.6 79 79 NE 7 11 30.08 1019 10 16.0934 0 0
1:54 pm 13:54 Cloudy 69 20.6 61 16.1 76 76 VRB 6 9 30.07 1018 10 16.0934 0 0
2:01 pm 14:01 Cloudy 70 21.1 61 16.1 73 73 NNE 5 7 30.06 1018 10 16.0934 0 0
2:29 pm 14:29 Partly Cloudy 72 22.2 62 16.7 71 71 NNE 6 9 30.06 1018 10 16.0934 0 0
2:54 pm 14:54 Mostly Sunny 73 22.8 62 16.7 69 69 VRB 7 11 30.05 1018 9 14.48406 0 0
3:54 pm 15:54 Sunny 73 22.8 63 17.2 71 71 E 6 9 30.04 1017 10 16.0934 0 0
4:54 pm 16:54 Sunny 73 22.8 63 17.2 71 71 SE 6 9 30.03 1017 10 16.0934 0 0
5:54 pm 17:54 Sunny 73 22.8 63 17.2 71 71 ENE 6 9 30.03 1017 10 16.0934 0 0
6:54 pm 18:54 Sunny 70 21.1 62 16.7 76 76 ESE 6 9 30.02 1017 10 16.0934 0 0
7:54 pm 19:54 Sunny 68 20 62 16.7 81 81 ESE 6 9 30.03 1017 10 16.0934 0 0
8:54 pm 20:54 Clear 66 18.9 61 16.1 84 84 SE 7 11 30.04 1017 10 16.0934 0 0
9:54 pm 21:54 Clear 64 17.8 61 16.1 90 90 SSE 8 13 30.05 1018 8 12.87472 0 0
10:34 pm 22:34 Partly Cloudy with Mist and Fog 64 18 61 16 88 88 SE 12 19 30.03 1017 6 9.65604 0 0
10:43 pm 22:43 Mostly Cloudy with Mist and Fog 64 18 61 16 88 88 SSE 13 20 30.03 1017 6 9.65604 0 0
10:54 pm 22:54 Cloudy 64 17.8 61 16.1 90 90 SSE 12 19 30.05 1018 7 11.26538 0 0
11:54 pm 23:54 Cloudy with Mist and Fog 64 17.8 61 16.1 90 90 SSE 8 13 30.05 1018 6 9.65604 0 0

Powered by AerisWeather